STARLINK-1582, 46043

Orbit data source: Space-Track

STARLINK-1582, 46043 is a payload satellite owned by SpaceX/Seattle (US) in LEO that was launched on Fri, 07 Aug 2020 UTC via an FALCON 9 launch vehicle from the Air Force Eastern Test Range (AFETR). Payload-class satellites include a variety of spacecraft equipped with specific instruments for various scientific and technological missions. These include communications satellites like Starlink; space stations such as the ISS; scientific satellites like the Hubble; Earth observation satellites from companies like Planet Labs, Umbra, and HawkEye 360; GPS; miniature CubeSats for education and research; and military/defense satellites.

Loading next visibility...
Identifier
46043, 2020-055S
Orbit
LEO
Country
Flag of USUS
Related business
Manufacturer
SpaceX/Seattle
Mission
Operational Commercial Communications
Bus & Motor
STARLINK, Unknown motor
Mass
260 kg wet, ~248 kg dry
Launch date (UTC)
2020-08-07 (6 years ago)
Launch vehicle
FALCON 9
Launch site
Air Force Eastern Test Range (AFETR)
Object type
Payload
Rocket body
Debris
Shape & HBR
Box + 1 Pan, 10.1 m
Radar Cross Section
13.562 m², Large (>1 m²)

Expand to show TLE details & history
Last TLE update: 1 day ago

TLE from 1 day ago
0 STARLINK-1582
1 46043U 20055S   26170.78538072 -.00000790  00000-0 -13681-4 0  9996
2 46043  53.1589  11.7548 0001078 102.1713 257.9409 15.31700518324520
Epoch: 2026-06-19T18:50Z
TLE epoch observation values (Epoch: 2026-06-19T18:50:56.894Z)
Latitude
-0.00002°
Longitude
-178.99165°
Altitude
471.793 km
Speed
7.631 km/s
True Right ascension
00h 47m 01s
True Declination
0° 00' 00"
Sunlit
Object was in daylight at epoch
Visualization orbit readout
Latitude
Unknown
Longitude
Unknown
Altitude
Unknown
Speed
Unknown
Apparent Right ascension
Unknown
Apparent Declination
Unknown
Sunlit
N/A
Visualization observer readout
Local Sidereal Time
06:43:38
Azimuth
Unknown
Elevation
Unknown
Doppler factor
Unknown
Orbital elements
Apogee altitude
471.734 km
Perigee altitude
470.257 km
Semi-major axis
6,849.132 km
Eccentricity
0.00011
Inclination
53.1589°
RAAN
11.7548°
Arg. of periapsis
102.1713°
True anomaly
257.92882°
Mean anomaly
257.9409°
Eccentric anomaly
257.93486°
Mean motion
3.82904 °/min
Orbital period
94.02 mins
BSTAR
-0.000013681
Loading maneuver chart data...
Computing Atmospheric mass density...

Documentation

Showing up to 5 results
|